Location: Unspecified
(42.3650°N, 71.1030°W)
Time: 15:07:59
(UTC+00:00)

Tiros 1 - Pass Details

Date: 01 July 2024
Orbit: 624 x 656 km, 48.4° (Epoch: 13 July)

Event Time Altitude Azimuth Distance (km) Brightness Sun altitude
Rises 23:03:12 0° 179° (S) 2,898 10.3 12.7°
Reaches altitude 10° 23:08:03 10° 134° (SE) 1,991 9.2 11.9°
Maximum altitude 23:08:23 10° 130° (SE) 1,986 9.1 11.8°
Drops below altitude 10° 23:08:44 10° 125° (SE) 1,991 9.1 11.7°
Sets 23:13:34 0° 80° (E) 2,901 10.0 10.9°
